Regional Weather Roundup
Issued by NWS

Home | Current Version | Previous Version | Text Only | Print | Product List | Glossary Off
Versions: 1 2 3 4 5 6 7 8 9 10 11 12 13 14 15 16 17 18 19 20 21 22 23 24 25 26 27 28

000
ASUS45 KCYS 190210
RWRWY

WYOMING REGIONAL WEATHER ROUNDUP
NATIONAL WEATHER SERVICE CHEYENNE WY
800 PM MDT FRI APR 18 2014

NOTE:  "FAIR" INDICATES FEW OR NO CLOUDS BELOW 12,000 FEET
WITH NO SIGNIFICANT WEATHER AND/OR OBSTRUCTIONS TO VISIBILITY.

WYZ001-190300-
YELLOWSTONE NATIONAL PARK

CITY           SKY/WX    TMP DP  RH WIND       PRES   REMARKS
LK YELLOWSTONE   N/A     36  23  59 W9        29.95R WCI  29
W YELLOWSTONE  NOT AVBL

$$
WYZ002>013-054>058-071-098>099-190300-
NORTHERN WYOMING

CITY           SKY/WX    TMP DP  RH WIND       PRES   REMARKS
JACKSON        CLEAR     45  28  53 S22       29.95R
CODY           PTCLDY    54  21  28 W10G17    29.81R
GREYBULL       MOCLDY    59  24  26 NW14      29.76R
WORLAND        MOCLDY    57  36  45 N8        29.76R
SHERIDAN         N/A     48  34  57 NW10        N/A
BUFFALO        MOCLDY    52  39  61 N12G22    29.76R
GILLETTE       CLOUDY    52  39  61 NE13      29.75R
HULETT         FAIR      54  37  54 N5        29.74
NEWCASTLE      FAIR      59  37  44 NW7       29.73

$$
WYZ014>020-022>026-101>103-190300-
CENTRAL WYOMING

CITY           SKY/WX    TMP DP  RH WIND       PRES   REMARKS
BIG PINEY      PTCLDY    46  16  30 N10       30.01R
PINEDALE       PTCLDY    43  28  56 N10       30.03R
DUBOIS         FAIR      41  16  36 NW21G32   29.91R
LANDER         MOCLDY    59  20  22 W8G47     29.79F
RIVERTON       MOCLDY    55   7  14 NW13      29.83R
CASPER         MOCLDY    56  32  40 SW15      29.83R
DOUGLAS        MOCLDY    59  35  40 NW6       29.82R

$$
WYZ021-027>030-104>119-190300-
SOUTHERN WYOMING

CITY           SKY/WX    TMP DP  RH WIND       PRES   REMARKS
EVANSTON       CLOUDY    52  32  46 W12       30.00S
KEMMERER       MOCLDY    46  34  61 W22G29    29.99F
FORT BRIDGER   FAIR      54  31  42 W15G23    30.02F
ROCK SPRINGS   CLOUDY    54  28  36 W3        29.98S
DIXON          CLOUDY    57  32  38 NW17      29.98R
RAWLINS        CLOUDY    53  29  39 W16G28    29.95R
SARATOGA       FAIR      52  32  46 NW7       29.98R
LARAMIE        CLOUDY    52  23  32 W7        29.96R
CHEYENNE       CLOUDY    63  28  26 S10       29.89S
TORRINGTON     CLOUDY    67  36  31 SW12      29.75R
PINE BLUFFS    FAIR      61  30  31 S14       29.86R

$$



USA.gov is the U.S. government's official web portal to all federal, state and local government web resources and services.